K7RCT-13 Weather Reports


Display with metric or nautical units.
time (UTC)temp
F
wind
direction
speed
MPH
gust
MPH
rain 1hr
in
rain 24hr
in
rain mn
in
humidity
%
barometer
mb
20210515102204 48 351 0.0 0.0 0.00 0.00 0.00 85 1018.0
20210515101704 48 6 0.0 0.0 0.00 0.00 0.00 85 1018.2
20210515101204 48 24 0.0 0.0 0.00 0.00 0.00 85 1018.2
20210515100704 48 35 0.0 0.0 0.00 0.00 0.00 86 1018.0
20210515100204 47 41 0.0 0.0 0.00 0.00 0.00 85 1018.2
20210515095705 47 65 0.0 0.0 0.00 0.00 0.00 84 1018.1
20210515095204 48 65 0.0 0.0 0.00 0.00 0.00 84 1018.0
20210515094704 48 65 0.0 0.0 0.00 0.00 0.00 84 1018.0
20210515094204 48 65 0.0 0.0 0.00 0.00 0.00 83 1018.1
20210515093704 49 65 0.0 0.0 0.00 0.00 0.00 83 1018.2
20210515093204 48 65 0.0 0.0 0.00 0.00 0.00 83 1018.1
20210515092704 49 65 0.0 0.0 0.00 0.00 0.00 83 1018.2
20210515092205 49 65 0.0 0.0 0.00 0.00 0.00 82 1018.1
20210515091704 49 65 0.0 0.0 0.00 0.00 0.00 82 1018.1
20210515091205 49 68 0.0 0.0 0.00 0.00 0.00 82 1018.3
20210515090705 49 73 0.0 0.0 0.00 0.00 0.00 81 1018.3
20210515090205 49 45 0.0 0.0 0.00 0.00 0.00 81 1018.1
20210515085704 50 45 0.0 0.0 0.00 0.00 0.00 81 1018.2
20210515085205 50 75 0.0 0.0 0.00 0.00 0.00 81 1018.1
20210515084705 50 75 0.0 0.0 0.00 0.00 0.00 79 1018.3
20210515084204 50 75 0.0 0.0 0.00 0.00 0.00 79 1018.3
20210515083704 50 75 0.0 0.0 0.00 0.00 0.00 79 1018.3
20210515083204 51 75 0.0 0.0 0.00 0.00 0.00 78 1018.2
20210515082704 51 75 0.0 0.0 0.00 0.00 0.00 78 1018.2
20210515082214 51 75 0.0 0.0 0.00 0.00 0.00 78 1018.3
20210515081704 51 75 0.0 0.0 0.00 0.00 0.00 77 1018.3
20210515081204 51 82 0.0 0.0 0.00 0.00 0.00 77 1018.3
20210515080704 51 45 0.0 0.0 0.00 0.00 0.00 76 1018.3
20210515080205 51 68 0.0 0.0 0.00 0.00 0.00 76 1018.2
20210515075704 51 68 0.0 0.0 0.00 0.00 0.00 75 1018.2
20210515075204 51 68 0.0 0.0 0.00 0.00 0.00 75 1018.1
20210515074705 51 68 0.0 0.0 0.00 0.00 0.00 75 1018.2
20210515074205 51 68 0.0 0.0 0.00 0.00 0.00 75 1018.1
20210515073704 52 68 0.0 0.0 0.00 0.00 0.00 74 1018.1
20210515073205 51 27 0.0 0.0 0.00 0.00 0.00 75 1018.0
20210515072705 52 28 0.0 0.0 0.00 0.00 0.00 75 1018.0
20210515072205 52 30 0.0 0.0 0.00 0.00 0.00 75 1018.0
20210515071704 52 54 0.0 0.0 0.00 0.00 0.00 75 1018.0
20210515071204 52 23 0.0 0.0 0.00 0.00 0.00 75 1018.0
20210515070704 52 23 0.0 0.0 0.00 0.00 0.00 76 1017.9
20210515070204 52 0 0.0 0.0 0.00 0.00 0.00 76 1018.0
20210515065704 52 58 0.0 0.0 0.00 0.00 0.00 76 1017.9
20210515065204 52 1 0.0 0.0 0.00 0.00 0.00 76 1017.9
20210515064704 52 1 0.0 0.0 0.00 0.00 0.00 76 1017.8
20210515064204 52 54 0.0 0.0 0.00 0.00 0.00 76 1017.7
20210515063704 52 59 0.0 0.0 0.00 0.00 0.00 75 1017.7
20210515063204 52 31 0.0 0.0 0.00 0.00 0.00 75 1017.7
20210515062704 52 30 0.0 0.0 0.00 0.00 0.00 74 1017.8
20210515062204 53 30 0.0 0.0 0.00 0.00 0.00 73 1017.8
20210515061704 53 63 0.0 0.0 0.00 0.00 0.00 73 1017.8
20210515061208 53 42 0.0 0.0 0.00 0.00 0.00 73 1017.8
20210515060704 53 37 0.0 0.0 0.00 0.00 0.00 74 1017.9
20210515060204 53 49 0.0 0.0 0.00 0.00 0.00 74 1017.9
20210515055704 53 6 0.0 0.0 0.00 0.00 0.00 73 1017.9
20210515055205 53 0 0.0 0.0 0.00 0.00 0.00 73 1017.7
20210515054704 53 56 0.0 0.0 0.00 0.00 0.00 73 1017.7
20210515054204 53 25 0.0 0.0 0.00 0.00 0.00 73 1017.7
20210515053704 53 44 0.0 0.0 0.00 0.00 0.00 73 1017.6
20210515053205 53 11 0.0 0.0 0.00 0.00 0.00 73 1017.6
20210515052705 53 11 0.0 0.0 0.00 0.00 0.00 73 1017.6
20210515052205 53 27 0.0 0.0 0.00 0.00 0.00 73 1017.5
20210515051704 54 45 0.0 0.0 0.00 0.00 0.00 72 1017.5
20210515051204 54 44 0.0 0.0 0.00 0.00 0.00 72 1017.6
20210515050704 54 59 0.0 0.0 0.00 0.00 0.00 73 1017.5
20210515050205 54 61 0.0 0.0 0.00 0.00 0.00 72 1017.6
20210515045704 54 93 0.0 0.0 0.00 0.00 0.00 72 1017.5
20210515045204 54 61 0.0 0.0 0.00 0.00 0.00 72 1017.6
20210515044704 55 28 0.0 0.0 0.00 0.00 0.00 72 1017.5
20210515044204 56 27 0.0 0.0 0.00 0.00 0.00 70 1017.5
20210515043704 56 16 0.0 0.0 0.00 0.00 0.00 70 1017.6
20210515043205 56 16 0.0 0.0 0.00 0.00 0.00 69 1017.5
20210515042705 56 0 0.0 0.0 0.00 0.00 0.00 69 1017.5
20210515042205 56 0 0.0 0.0 0.00 0.00 0.00 70 1017.3
20210515041707 56 0 0.0 0.0 0.00 0.00 0.00 70 1017.3
20210515041204 56 351 0.0 0.0 0.00 0.00 0.00 70 1017.3
20210515040704 57 350 0.0 0.0 0.00 0.00 0.00 70 1017.3
20210515040205 57 0 0.0 0.0 0.00 0.00 0.00 70 1017.2
20210515035704 57 61 0.0 0.0 0.00 0.00 0.00 71 1017.2
20210515035205 57 58 0.0 0.0 0.00 0.00 0.00 70 1017.2
20210515034704 58 45 0.0 0.0 0.00 0.00 0.00 70 1017.3
20210515034204 58 1 0.0 0.0 0.00 0.00 0.00 70 1017.2
20210515033704 58 94 0.0 0.0 0.00 0.00 0.00 69 1017.3
20210515033205 59 31 0.0 0.0 0.00 0.00 0.00 68 1017.3
20210515032704 59 0 0.0 0.0 0.00 0.00 0.00 68 1017.2
20210515032205 60 0 0.0 0.0 0.00 0.00 0.00 68 1017.3
20210515031704 60 0 0.0 0.0 0.00 0.00 0.00 67 1017.3
20210515031204 60 0 0.0 0.0 0.00 0.00 0.00 66 1017.2
20210515030705 61 299 0.0 0.0 0.00 0.00 0.00 65 1017.3
20210515030204 61 345 0.0 0.0 0.00 0.00 0.00 65 1017.2
20210515025704 61 0 0.0 0.0 0.00 0.00 0.00 64 1017.3
20210515025204 62 0 0.0 0.0 0.00 0.00 0.00 63 1017.2
20210515024704 63 313 0.0 0.0 0.00 0.00 0.00 62 1017.2
20210515024205 64 6 0.0 0.0 0.00 0.00 0.00 61 1017.2
20210515023704 65 0 0.0 0.0 0.00 0.00 0.00 59 1017.1
20210515023205 65 327 0.0 0.0 0.00 0.00 0.00 58 1017.1
20210515022705 66 0 0.0 0.0 0.00 0.00 0.00 57 1017.0
20210515022205 67 331 0.0 0.0 0.00 0.00 0.00 56 1017.0
20210515021704 67 317 0.0 0.0 0.00 0.00 0.00 56 1017.0
20210515021204 67 179 0.0 0.0 0.00 0.00 0.00 57 1016.9
20210515020704 67 4 0.0 0.0 0.00 0.00 0.00 56 1016.8
20210515020205 67 0 0.0 0.0 0.00 0.00 0.00 55 1016.9
20210515015704 68 303 0.0 0.0 0.00 0.00 0.00 54 1016.8
20210515015205 68 1 0.0 0.0 0.00 0.00 0.00 53 1016.8
20210515014704 68 1 0.0 0.0 0.00 0.00 0.00 53 1016.7
20210515014204 68 21 0.0 0.0 0.00 0.00 0.00 51 1016.8
20210515013705 68 300 0.0 0.0 0.00 0.00 0.00 50 1016.7
20210515013205 69 317 0.0 0.0 0.00 0.00 0.00 49 1016.9
20210515012705 69 0 0.0 0.0 0.00 0.00 0.00 47 1016.8
20210515012204 69 321 0.0 0.0 0.00 0.00 0.00 47 1016.9
20210515011713 69 4 0.0 0.0 0.00 0.00 0.00 46 1016.9
20210515011204 69 307 0.0 0.0 0.00 0.00 0.00 46 1016.9
20210515010704 70 28 0.0 0.0 0.00 0.00 0.00 46 1016.8
20210515010205 70 14 0.0 0.0 0.00 0.00 0.00 46 1016.9
20210515005704 70 319 0.0 0.0 0.00 0.00 0.00 44 1016.9
20210515005205 71 0 0.0 0.0 0.00 0.00 0.00 44 1016.9
20210515004704 71 13 0.0 0.0 0.00 0.00 0.00 42 1016.9
20210515004204 71 6 0.0 0.0 0.00 0.00 0.00 44 1016.8
20210515003704 72 164 0.0 0.0 0.00 0.00 0.00 42 1016.9
20210515003205 71 3 0.0 0.0 0.00 0.00 0.00 42 1017.0
20210515002704 71 189 0.0 0.0 0.00 0.00 0.00 41 1017.0
20210515002204 71 353 0.0 0.0 0.00 0.00 0.00 41 1016.9
20210515001705 72 357 0.0 0.0 0.00 0.00 0.00 41 1017.0
20210515001205 72 0 0.0 0.0 0.00 0.00 0.00 42 1017.0
20210515000704 73 11 0.0 0.0 0.00 0.00 0.00 38 1016.9
20210515000205 72 99 0.0 0.0 0.00 0.00 0.00 39 1017.1
20210514235704 72 358 0.0 0.0 0.00 0.00 0.00 36 1017.1
20210514235204 72 18 0.0 0.0 0.00 0.00 0.00 39 1017.1
20210514234704 73 47 0.0 0.0 0.00 0.00 0.00 37 1017.1
20210514234204 73 55 0.0 0.0 0.00 0.00 0.00 37 1017.2
20210514233704 73 32 0.0 0.0 0.00 0.00 0.00 37 1017.2
20210514233206 73 0 0.0 0.0 0.00 0.00 0.00 39 1017.1
20210514232704 73 0 0.0 0.0 0.00 0.00 0.00 40 1017.2
20210514232205 73 0 0.0 0.0 0.00 0.00 0.00 38 1017.3
20210514231705 73 207 0.0 0.0 0.00 0.00 0.00 39 1017.2
20210514231204 74 0 0.0 0.0 0.00 0.00 0.00 38 1017.2
20210514230704 75 30 0.0 0.0 0.00 0.00 0.00 42 1017.2
20210514230208 75 3 0.0 0.0 0.00 0.00 0.00 39 1017.2
20210514225704 75 0 0.0 0.0 0.00 0.00 0.00 42 1017.3
20210514225204 75 0 0.0 0.0 0.00 0.00 0.00 43 1017.4
20210514224704 75 0 0.0 0.0 0.00 0.00 0.00 42 1017.4
20210514224204 75 320 0.0 0.0 0.00 0.00 0.00 44 1017.4
20210514223705 75 27 0.0 0.0 0.00 0.00 0.00 42 1017.5
20210514223205 74 0 0.0 0.0 0.00 0.00 0.00 40 1017.5
20210514222704 74 4 0.0 0.0 0.00 0.00 0.00 37 1017.6
20210514222205 74 0 0.0 0.0 0.00 0.00 0.00 39 1017.6
20210514221704 74 0 0.0 0.0 0.00 0.00 0.00 39 1017.8
20210514221204 74 4 0.0 1.0 0.00 0.00 0.00 38 1017.9
20210514220704 74 7 0.0 1.0 0.00 0.00 0.00 38 1017.9
20210514220204 75 357 0.0 1.0 0.00 0.00 0.00 38 1017.9
20210514215704 74 1 0.0 0.0 0.00 0.00 0.00 40 1017.9
20210514215204 75 10 0.0 0.0 0.00 0.00 0.00 41 1018.0
20210514214704 74 0 0.0 12.0 0.00 0.00 0.00 40 1018.0
20210514214204 73 0 0.0 12.0 0.00 0.00 0.00 40 1018.0
20210514213704 72 61 0.0 12.0 0.00 0.00 0.00 42 1018.1
20210514213205 72 302 0.0 0.0 0.00 0.00 0.00 41 1018.2
20210514212705 72 319 0.0 0.0 0.00 0.00 0.00 44 1018.1
20210514212204 72 354 0.0 1.0 0.00 0.00 0.00 43 1018.2
20210514211705 72 341 0.0 9.0 0.00 0.00 0.00 41 1018.2
20210514211204 72 59 0.0 9.0 0.00 0.00 0.00 42 1018.3
20210514210704 72 0 0.0 9.0 0.00 0.00 0.00 42 1018.3
20210514210204 74 314 0.0 0.0 0.00 0.00 0.00 48 1018.3
20210514205704 73 327 0.0 0.0 0.00 0.00 0.00 47 1018.3
20210514205204 73 0 0.0 0.0 0.00 0.00 0.00 46 1018.4
20210514204704 72 300 0.0 0.0 0.00 0.00 0.00 52 1018.4
20210514204204 72 0 0.0 0.0 0.00 0.00 0.00 50 1018.4
20210514203704 72 217 0.0 0.0 0.00 0.00 0.00 51 1018.4
20210514203205 73 321 0.0 0.0 0.00 0.00 0.00 52 1018.4
20210514202704 72 357 0.0 0.0 0.00 0.00 0.00 52 1018.5
20210514202204 72 18 0.0 0.0 0.00 0.00 0.00 53 1018.5
20210514201704 73 357 0.0 0.0 0.00 0.00 0.00 56 1018.6
20210514201204 71 255 0.0 0.0 0.00 0.00 0.00 51 1018.5
20210514200704 71 321 0.0 0.0 0.00 0.00 0.00 52 1018.5
20210514200205 71 321 0.0 0.0 0.00 0.00 0.00 55 1018.7
20210514195704 70 3 0.0 1.0 0.00 0.00 0.00 52 1018.6
20210514195204 70 41 0.0 9.0 0.00 0.00 0.00 53 1018.6
20210514194714 71 313 0.0 9.0 0.00 0.00 0.00 54 1018.7
20210514194205 71 3 0.0 9.0 0.00 0.00 0.00 57 1018.7
20210514193704 72 0 0.0 1.0 0.00 0.00 0.00 56 1018.9
20210514193204 72 347 0.0 1.0 0.00 0.00 0.00 58 1018.9
20210514192704 71 290 0.0 0.0 0.00 0.00 0.00 54 1018.8
20210514192205 72 248 0.0 0.0 0.00 0.00 0.00 58 1019.0
20210514191704 71 295 0.0 0.0 0.00 0.00 0.00 55 1019.0
20210514191204 71 11 0.0 0.0 0.00 0.00 0.00 58 1019.0
20210514190704 72 353 0.0 0.0 0.00 0.00 0.00 58 1018.9
20210514190205 71 228 0.0 0.0 0.00 0.00 0.00 56 1019.0
20210514185704 71 298 0.0 0.0 0.00 0.00 0.00 57 1019.1
20210514185204 71 313 0.0 0.0 0.00 0.00 0.00 61 1019.0
20210514184705 70 305 0.0 0.0 0.00 0.00 0.00 56 1019.0
20210514184205 69 313 0.0 0.0 0.00 0.00 0.00 57 1019.2
20210514183704 71 168 0.0 0.0 0.00 0.00 0.00 58 1019.1
20210514183205 69 61 0.0 0.0 0.00 0.00 0.00 61 1019.1
20210514182704 69 11 0.0 0.0 0.00 0.00 0.00 60 1019.1
20210514182208 69 123 0.0 0.0 0.00 0.00 0.00 60 1019.1
20210514181705 70 200 0.0 0.0 0.00 0.00 0.00 57 1019.2
20210514181204 69 34 0.0 0.0 0.00 0.00 0.00 62 1019.2
20210514180704 68 189 0.0 0.0 0.00 0.00 0.00 61 1019.2
20210514180205 67 164 0.0 0.0 0.00 0.00 0.00 61 1019.2
20210514175704 68 13 0.0 0.0 0.00 0.00 0.00 65 1019.2
20210514175205 68 357 0.0 0.0 0.00 0.00 0.00 63 1019.3
20210514174705 67 313 0.0 0.0 0.00 0.00 0.00 63 1019.4
20210514174205 67 336 0.0 0.0 0.00 0.00 0.00 63 1019.3
20210514173708 67 109 0.0 0.0 0.00 0.00 0.00 64 1019.4
20210514173205 66 0 0.0 0.0 0.00 0.00 0.00 64 1019.4
20210514172708 65 295 0.0 0.0 0.00 0.00 0.00 64 1019.4
20210514172205 65 0 0.0 0.0 0.00 0.00 0.00 64 1019.3
20210514171704 65 0 0.0 0.0 0.00 0.00 0.00 65 1019.5
20210514171204 64 41 0.0 0.0 0.00 0.00 0.00 67 1019.5
20210514170704 64 0 0.0 0.0 0.00 0.00 0.00 65 1019.5
20210514170204 65 329 0.0 0.0 0.00 0.00 0.00 67 1019.6
20210514165704 64 296 0.0 0.0 0.00 0.00 0.00 66 1019.6
20210514165205 64 0 0.0 0.0 0.00 0.00 0.00 69 1019.5
20210514164707 63 0 0.0 0.0 0.00 0.00 0.00 69 1019.6
20210514164204 62 0 0.0 0.0 0.00 0.00 0.00 69 1019.5
20210514163704 62 0 0.0 0.0 0.00 0.00 0.00 69 1019.6
20210514163205 62 285 0.0 0.0 0.00 0.00 0.00 67 1019.6
20210514162704 62 289 0.0 0.0 0.00 0.00 0.00 70 1019.6
20210514162205 61 290 0.0 0.0 0.00 0.00 0.00 71 1019.7
20210514161704 60 0 0.0 0.0 0.00 0.00 0.00 72 1019.7
20210514161208 60 0 0.0 0.0 0.00 0.00 0.00 71 1019.8
20210514160704 60 0 0.0 0.0 0.00 0.00 0.00 72 1019.7
20210514160205 60 320 0.0 0.0 0.00 0.00 0.00 74 1019.8
20210514155704 59 0 0.0 0.0 0.00 0.00 0.00 73 1019.7
20210514155205 59 0 0.0 0.0 0.00 0.00 0.00 74 1019.8
20210514154704 58 8 0.0 0.0 0.00 0.00 0.00 77 1019.9
20210514154204 58 341 0.0 0.0 0.00 0.00 0.00 76 1019.9
20210514153704 58 316 0.0 0.0 0.00 0.00 0.00 77 1019.9
20210514153205 57 347 0.0 0.0 0.00 0.00 0.00 77 1019.9
20210514152704 56 0 0.0 0.0 0.00 0.00 0.00 78 1020.0
20210514152205 56 313 0.0 0.0 0.00 0.00 0.00 78 1020.0
20210514151705 56 312 0.0 0.0 0.00 0.00 0.00 80 1020.0
20210514151204 55 319 0.0 0.0 0.00 0.00 0.00 78 1020.0
20210514150705 56 354 0.0 0.0 0.00 0.00 0.00 79 1020.1
20210514150207 56 343 0.0 0.0 0.00 0.00 0.00 80 1020.0
20210514145704 55 329 0.0 0.0 0.00 0.00 0.00 80 1020.0
20210514145205 56 0 0.0 0.0 0.00 0.00 0.00 80 1019.9
20210514144704 55 0 0.0 0.0 0.00 0.00 0.00 82 1019.9
20210514144205 55 0 0.0 0.0 0.00 0.00 0.00 82 1019.9
20210514143705 55 4 0.0 0.0 0.00 0.00 0.00 83 1019.9
20210514143205 54 4 0.0 0.0 0.00 0.00 0.00 84 1020.0
20210514142705 53 4 0.0 0.0 0.00 0.00 0.00 83 1020.0
20210514142205 54 299 0.0 0.0 0.00 0.00 0.00 83 1019.9
20210514141705 53 0 0.0 0.0 0.00 0.00 0.00 83 1019.9
20210514141204 54 344 0.0 0.0 0.00 0.00 0.00 85 1019.8
20210514140705 54 0 0.0 0.0 0.00 0.00 0.00 86 1019.7
20210514140208 53 23 0.0 0.0 0.00 0.00 0.00 86 1019.7
20210514135704 53 23 0.0 0.0 0.00 0.00 0.00 88 1019.7
20210514135205 52 23 0.0 0.0 0.00 0.00 0.00 89 1019.7
20210514134705 51 32 0.0 0.0 0.00 0.00 0.00 89 1019.6
20210514134205 51 32 0.0 0.0 0.00 0.00 0.00 90 1019.7
20210514133704 50 73 0.0 0.0 0.00 0.00 0.00 90 1019.6
20210514133205 49 73 0.0 0.0 0.00 0.00 0.00 90 1019.6
20210514132704 49 73 0.0 0.0 0.00 0.00 0.00 90 1019.6
20210514132204 49 56 0.0 0.0 0.00 0.00 0.00 90 1019.6
20210514131704 49 48 0.0 0.0 0.00 0.00 0.00 90 1019.5
20210514131204 48 59 0.0 0.0 0.00 0.00 0.00 91 1019.6
20210514130705 48 58 0.0 0.0 0.00 0.00 0.00 91 1019.5
20210514130205 47 42 0.0 0.0 0.00 0.00 0.00 91 1019.6
20210514125704 47 42 0.0 0.0 0.00 0.00 0.00 90 1019.6
20210514125204 47 42 0.0 0.0 0.00 0.00 0.00 90 1019.6
20210514124704 47 42 0.0 0.0 0.00 0.00 0.00 90 1019.5
20210514124205 47 42 0.0 0.0 0.00 0.00 0.00 90 1019.5
20210514123704 47 42 0.0 0.0 0.00 0.00 0.00 90 1019.4
20210514123205 47 42 0.0 0.0 0.00 0.00 0.00 90 1019.3
20210514122704 47 42 0.0 0.0 0.00 0.00 0.00 90 1019.2
20210514122205 47 42 0.0 0.0 0.00 0.00 0.00 90 1019.4
20210514121707 47 42 0.0 0.0 0.00 0.00 0.00 90 1019.3
20210514121205 47 42 0.0 0.0 0.00 0.00 0.00 90 1019.4
20210514120705 47 42 0.0 0.0 0.00 0.00 0.00 90 1019.3
20210514120205 47 42 0.0 0.0 0.00 0.00 0.00 90 1019.3
20210514115704 47 42 0.0 0.0 0.00 0.00 0.00 89 1019.3
20210514115205 47 42 0.0 0.0 0.00 0.00 0.00 89 1019.3
20210514114704 47 42 0.0 0.0 0.00 0.00 0.00 89 1019.2
20210514114204 48 42 0.0 0.0 0.00 0.00 0.00 89 1019.2
20210514113704 47 42 0.0 0.0 0.00 0.00 0.00 89 1019.2
20210514113204 47 42 0.0 0.0 0.00 0.00 0.00 89 1019.2
20210514112704 47 42 0.0 0.0 0.00 0.00 0.00 89 1019.2
20210514112204 48 42 0.0 0.0 0.00 0.00 0.00 89 1019.3
20210514111704 47 42 0.0 0.0 0.00 0.00 0.00 89 1019.2
20210514111204 47 42 0.0 0.0 0.00 0.00 0.00 88 1019.4
20210514110704 48 42 0.0 0.0 0.00 0.00 0.00 88 1019.4
20210514110205 48 42 0.0 0.0 0.00 0.00 0.00 88 1019.2
20210514105704 48 42 0.0 0.0 0.00 0.00 0.00 88 1019.3
20210514105205 49 42 0.0 0.0 0.00 0.00 0.00 88 1019.2
20210514104704 49 42 0.0 0.0 0.00 0.00 0.00 88 1019.2
20210514104205 49 42 0.0 0.0 0.00 0.00 0.00 87 1019.2
20210514103704 49 42 0.0 0.0 0.00 0.00 0.00 88 1019.2
20210514103204 49 42 0.0 0.0 0.00 0.00 0.00 88 1019.2
20210514102704 49 58 0.0 0.0 0.00 0.00 0.00 88 1019.2